Torna al catalogo

STARLINK-32224

AttivoComunicazioniVLEO
NORAD 60941·PAYLOAD·🇺🇸 United States

Lanciato Aug 31, 2024 da Vandenberg Space Force Base

Loading…

Prossimi Passaggi (prossime 24 ore)

TLE

AggiornatoSource: CelesTrak SupGP

Epoca: Sep 14, 2026, 14:52 UTC

1 60941C 24155T   26257.61993056  .00006646  00000+0  19644-3 0  2573
2 60941  53.1603 329.2492 0001220  74.0903  57.0810 15.34372780    11

Traccia STARLINK-32224 in tempo reale con AllMySat

Download on the App Store